Probability
0 0 0 0 0 0 0 0 0 0 0 0 0 0 0 0 0 0 0 0 0 0 0 0 0 0 0 0 0 0 0 0 0 0 0 0 0 0 0 0 0 0 0 0
0 0 0 0 0 0 0 0 0 0 0 0 0 0 0 0 0 0 0 0 0 0 0 0 0 0 0 0 0 0 0 0 0 0 0 0 0 0 0 0 0 0 0 0
0 0 0 0 0 0 0 0 0 0 0 0 0 0 0 0 0 0 0 0 0 0 0 0 0 0 0 0 0 0 0 0 0 0 0 0 0 0 0 0 0 0 0 0
0 0 0 0 0 0 0 0 0 0 0 0 0 0 0 0 0 0 0 0 0 0 0 0 0 0 0 0 0 0 0 0 0 0 0 0 0 0 0 0 0 0 0 0
0 0 0 0 0 0 0 0 0 0 0 0 0 0 0 0 0 0 0 0 0 0 0 0 0 0 0 0 0 0 0 0 0 0 0 0 0 0 0 0 0 0 0 0
0 0 0 0 0 0 0 0 0 0 0 0 0 0 0 0 0 0 0 0 0 0 0 0 0 0 0 0 0 0 0 0 0 0 0 0 0 0 0 0 0 0 0 0
0 0 0 0 0 0 0 0 0 0 0 0 0 0 0 0 0 0 0 0 0 0 0 0 0 0 0 0 0 0 0 0 0 0 0 0 0 0 0 0 0 0 0 0
0 0 0 0 0 0 0 0 0 0 0 0 0 0 0 0 0 0 0 0 0 0 0 0 0 0 0 0 0 0 0 0 0 0 0 0 0 0 0 0 0 0 0 0
0 0 0 0 0 0 0 0 0 0 0 0 0 0 0 0 0 0 0 0 0 0 0 0 0 0 0 0 0 0 0 0 0 0 0 0 0 0 0 0 0 0 0 0
0 0 0 0 0 0 0 0 0 0 0 0 0 0 0 0 0 0 0 0 0 0 0 0 0 0 0 0 0 0 0 0 0 0 0 0 0 0 0 0 0 0 0 0
0 0 0 0 0 0 0 0 0 0 0 0 0 0 0 0 0 0 0 0 0 0 0 0 0 0 0 0 0 0 0 0 0 0 0 0 0 0 0 0 0 0 0 0
0 0 0 0 0 0 0 0 0 0 0 0 0 0 0 0 0 0 0 0 0 0 0 0 0 0 0 0 0 0 0 0 0 0 0 0 0 0 0 0 0 0 0 0
0 0 0 0 0 0 0 0 0 0 0 0 0 0 0 0 0 0 0 0 0 0 0 0 0 0 0 0 0 0 0 0 0 0 0 0 0 0 0 0 0 0 0 0
0 0 0 0 0 0 0 0 0 0 0 0 0 0 0 0 0 0 0 0 0 0 0 0 0 0 0 0 0 0 0 0 0 0 0 0 0 0 0 0 0 0 0 0
0 0 0 0 0 0 0 0 0 0 0 0 0 0 0 0 0 0 0 0 0 0 0 0 0 0 0 0 0 0 0 0 0 0 0 0 0 0 0 0 0 0 0 0
0 0 0 0 0 0 0 0 0 0 0 0 0 0 0 0 0 0 0 0 0 0 0 0 0 0 0 0 0 0 0 0 0 0 0 0 0 0 0 0 0 0 0 0
0 0 0 0 0 0 0 0 0 0 0 0 0 0 0 0 0 0 0 0 0 0 0 0 0 0 0 0 0 0 0 0 0 0 0 0 0 0 0 0 0 0 0 0
0 0 0 0 0 0 0 0 0 0 0 0 0 0 0 0 0 0 0 0 0 0 0 0 0 0 0 0 0 0 0 0 0 0 0 0 0 0 0 0 0 0 0 0
0 0 0 0 0 0 0 0 0 0 0 0 0 0 0 0 0 0 0 0 0 0 0 0 0 0 0 0 0 0 0 0 0 0 0 0 0 0 0 0 0 0 0 0
0 0 0 0 0 0 0 0 0 0 0 0 0 0 0 0 0 0 0 0 0 0 0 0 0 0 0 0 0 0 0 0 0 0 0 0 0 0 0 0 0 0 0 0
0 0 0 0 0 0 0 0 0 0 0 0 0 0 0 0 0 0 0 0 0 0 0 0 0 0 0 0 0 0 0 0 0 0 0 0 0 0 0 0 0 0 0 0
0 0 0 0 0 0 0 0 0 0 0 0 0 0 0 0 0 0 0 0 0 0 0 0 0 0 0 0 0 0 0 0 0 0 0 0 0 0 0 0 0 0 0 0
0 0 0 0 0 0 0 0 0 0 0 0 0 0 0 0 0 0 0 0 0 0 0 0 0 0 0 0 0 0 0 0 0 0 0 0 0 0 0 0 0 0 0 0
0 0 0 0 0 0 0 0 0 0 0 0 0 0 0 0 0 0 0 0 0 0 0 0 0 0 0 0 0 0 0 0 0 0 0 0 0 0 0 0 0 0 0 0
0 0 0 0 0 0 0 0 0 0 0 0 0 0 0 0 0 0 0 0 0 0 0 0 0 0 0 0 0 0 0 0 0 0 0 0 0 0 0 0 0 0 0 0
0 0 0 0 0 0 0 0 0 0 0 0 0 0 0 0 0 0 0 0 0 0 0 0 0 0 0 0 0 0 0 0 0 0 0 0 0 0 0 0 0 0 0 0
0 0 0 0 0 0 0 0 0 0 0 0 0 0 0 0 0 0 0 0 0 0 0 0 0 0 0 0 0 0 0 0 0 0 0 0 0 0 0 0 0 0 0 0
Wind_Speed
2 2 2 6 8 7 4 1 1 1 1 3 5 4 4 5 6 6 6 6 6 6 6 6 5 4 4 3 2 1 1 0 1 1 2 2 2 3 3 3 3 4 4 4
2 2 3 6 9 6 4 3 1 2 3 5 5 4 5 6 6 6 6 7 6 6 6 6 6 5 5 4 3 2 1 0 0 0 1 2 2 3 3 3 3 3 4 4
2 4 3 5 7 6 5 4 2 2 4 6 6 6 5 5 5 5 7 7 7 6 6 6 6 6 5 4 3 2 1 1 1 1 1 2 3 3 3 3 3 3 4 4
1 4 1 1 3 4 3 4 5 5 7 6 4 4 4 5 5 6 7 7 7 7 6 6 6 5 4 3 2 2 2 1 1 0 1 2 3 3 3 3 3 3 3 4
1 0 2 2 5 5 4 3 6 7 8 8 6 3 3 6 8 7 7 6 6 6 6 6 6 5 4 3 2 2 2 1 1 0 2 2 3 3 3 3 3 3 3 4
1 1 2 4 7 8 2 3 7 8 8 8 7 3 4 8 9 9 8 7 6 6 6 6 6 5 4 3 3 2 2 1 1 0 1 2 2 2 2 3 3 3 3 3
1 1 3 4 8 5 2 5 8 7 7 7 5 4 6 7 7 7 7 7 7 6 5 5 6 5 3 3 3 3 2 1 1 1 1 2 2 2 3 3 3 3 3 2
1 0 4 5 4 2 3 5 6 6 6 6 6 6 5 6 7 7 7 7 7 6 6 5 5 4 3 4 4 3 1 1 1 1 1 1 3 2 3 3 4 3 3 2
3 3 2 2 1 2 3 4 5 5 6 5 5 5 6 6 6 6 6 6 6 5 6 6 5 4 3 4 4 2 2 2 1 2 1 1 2 3 2 2 3 2 3 2
1 3 3 3 3 4 4 4 5 5 5 4 4 5 5 6 6 6 6 6 6 6 6 6 6 5 4 4 3 1 1 1 1 1 1 1 1 1 2 2 2 2 2 2
2 4 4 3 4 5 6 6 6 5 4 4 4 5 5 5 6 6 7 6 6 5 5 6 6 6 5 4 3 2 1 1 1 1 1 1 1 1 1 1 2 3 2 3
4 3 2 5 5 5 5 6 6 6 6 6 5 5 5 5 5 5 6 6 6 6 6 6 6 6 5 4 3 2 1 1 1 1 1 1 2 2 4 2 2 2 1 1
3 3 3 4 5 4 4 5 6 5 5 5 5 5 5 5 5 5 6 6 6 6 6 6 6 6 6 5 3 2 1 1 0 0 1 1 1 2 2 3 3 3 2 2
1 1 2 3 4 5 5 5 5 5 5 4 5 5 5 5 6 6 6 6 6 5 5 5 5 6 6 5 3 2 2 2 1 0 0 1 1 1 2 2 1 1 1 2
2 2 2 3 3 4 5 5 6 6 6 6 6 6 6 6 6 7 7 6 6 6 6 6 5 6 6 5 4 3 2 1 1 1 0 0 0 1 1 1 1 1 1 1
3 3 2 3 4 5 5 6 5 6 6 6 6 6 6 6 6 6 6 6 6 7 7 6 6 6 6 5 4 3 2 3 2 1 0 0 0 1 1 1 1 1 1 1
1 3 3 4 5 5 5 5 4 5 5 5 6 6 6 6 6 6 7 6 6 6 6 6 6 6 6 5 4 3 2 2 3 2 1 0 0 1 1 2 2 1 1 2
2 3 3 3 3 4 5 5 4 5 5 5 6 5 5 5 6 7 7 7 6 6 6 6 6 6 5 5 4 3 2 2 2 1 1 1 0 0 1 1 1 1 1 1
2 2 2 3 3 3 3 4 5 5 5 4 5 5 5 5 5 6 6 6 6 7 7 7 9 7 6 6 6 3 3 2 2 2 2 1 1 0 0 1 1 1 1 1
2 2 2 3 3 3 4 4 4 4 4 4 4 5 5 5 5 6 5 4 4 5 6 7 6 5 5 5 6 3 3 2 2 2 2 1 1 1 0 1 1 1 1 1
3 3 3 3 3 3 3 4 4 4 5 4 4 4 5 5 5 5 5 5 5 6 6 7 5 4 4 5 5 3 3 2 2 2 2 2 1 1 1 1 1 1 1 1
3 3 3 3 3 4 4 4 4 4 5 4 4 5 5 5 5 5 4 4 5 9 6 4 3 5 6 6 3 2 2 2 2 2 2 2 2 2 2 2 2 2 2 2
3 3 3 3 4 4 4 4 4 4 4 5 5 5 5 5 4 4 5 5 5 8 6 4 6 9 9 5 3 2 3 3 2 2 2 2 2 2 2 2 2 2 2 2
2 3 3 3 3 3 4 5 4 4 4 5 4 4 4 4 4 3 4 8 10 9 5 6 10 10 8 3 3 3 3 3 3 3 3 2 2 2 2 2 2 2 2 3
2 2 3 3 3 3 4 5 4 4 4 4 5 4 3 3 4 5 4 5 9 9 5 7 9 9 5 3 3 3 3 3 3 3 2 3 3 3 3 3 3 3 3 3
2 2 3 3 3 3 3 3 3 3 4 4 4 4 4 3 4 4 4 5 6 8 5 4 5 6 3 3 3 3 3 4 4 3 3 3 3 3 3 3 4 3 3 3
2 2 2 2 3 3 3 3 3 4 4 4 5 5 4 4 4 4 4 4 4 4 4 4 4 3 3 3 3 3 3 3 3 3 3 3 3 3 4 4 3 3 3 3
Wind_Direction
239 287 7 15 357 10 48 49 173 280 340 347 346 349 6 11 13 23 23 18 15 9 2 359 1 0 356 345 353 11 60 84 244 234 201 172 165 167 167 167 172 170 162 161
297 328 24 27 7 4 12 6 348 339 327 337 341 9 15 9 10 11 5 1 357 358 356 352 349 346 344 341 339 359 40 342 319 151 150 151 154 151 151 156 159 158 161 161
303 320 10 15 358 13 32 15 13 331 316 341 357 358 355 355 3 2 354 351 349 347 344 340 335 331 332 333 339 353 4 6 24 93 144 146 142 135 140 145 141 145 153 153
323 24 32 259 6 3 13 25 18 354 338 338 329 333 349 12 9 353 348 344 341 337 335 334 330 330 331 337 352 356 358 7 24 113 134 136 138 141 141 138 142 146 147 147
79 48 278 325 354 346 322 332 14 358 348 346 340 353 8 14 3 348 340 335 331 329 326 327 329 331 332 341 349 358 357 356 345 162 144 137 143 148 145 138 138 142 141 143
85 91 277 302 315 317 295 309 357 354 346 347 354 359 325 341 342 341 342 340 335 331 332 333 331 335 341 347 353 346 332 327 340 87 139 146 148 146 137 137 137 134 131 138
85 206 271 308 319 351 68 299 326 331 330 333 333 300 300 320 333 336 338 338 338 335 335 332 330 334 337 340 331 321 325 350 23 54 113 129 122 125 128 125 121 121 121 116
85 176 278 334 3 36 280 307 320 321 323 325 319 316 323 330 333 336 338 339 340 338 335 334 336 339 337 330 325 331 11 38 45 52 76 96 108 105 115 124 125 125 120 111
197 222 273 347 331 301 315 317 314 315 317 321 321 325 333 335 334 333 335 336 336 337 336 338 343 342 329 323 327 345 39 50 58 50 55 85 111 118 117 124 135 143 143 139
284 283 307 317 326 339 336 323 315 312 316 326 323 324 331 338 340 340 339 338 338 343 342 339 341 341 328 324 335 22 55 58 71 78 67 69 90 125 137 145 145 151 155 155
274 288 318 320 329 330 335 338 337 336 337 338 337 334 336 336 336 336 336 336 339 341 338 336 338 340 338 338 353 26 48 63 67 78 103 87 66 66 111 151 170 166 170 169
244 259 263 288 310 328 338 339 339 348 350 351 350 340 339 337 336 337 336 338 341 342 338 337 340 341 341 342 352 22 37 37 57 81 94 104 98 63 46 70 79 87 114 162
242 268 259 279 309 332 334 330 335 345 344 342 345 343 341 338 337 337 339 342 340 336 335 336 339 339 339 339 345 9 25 3 27 68 117 132 135 130 101 60 68 84 108 133
293 331 315 317 317 328 334 335 342 348 348 346 343 344 345 342 340 342 341 336 334 336 336 336 340 339 337 338 346 2 8 360 353 346 168 174 167 161 159 155 134 82 104 143
315 310 276 299 326 338 344 348 354 351 349 349 350 349 349 347 341 336 334 337 342 346 344 343 344 338 337 341 349 356 358 358 353 345 358 154 141 136 142 149 149 142 118 140
310 322 323 339 340 342 346 348 345 337 338 339 342 341 338 335 332 332 338 345 350 346 342 341 340 336 339 346 350 350 354 355 349 353 16 54 133 145 153 155 154 160 183 194
319 319 322 325 328 330 330 328 322 320 326 330 328 327 332 335 338 339 341 343 340 335 337 339 337 336 341 347 347 344 345 347 349 349 349 336 184 175 179 178 180 189 212 221
248 258 271 279 295 310 317 323 324 323 320 316 321 329 335 338 334 331 331 335 339 342 346 342 341 341 345 348 347 344 343 346 346 342 339 339 343 226 196 196 194 197 213 223
291 285 289 293 296 299 305 313 318 319 319 323 327 327 325 325 325 326 329 337 341 339 339 340 343 348 347 348 347 347 349 348 346 344 347 348 356 353 244 214 209 211 225 239
309 309 305 305 312 309 308 311 315 320 323 326 325 326 329 327 325 326 329 329 325 315 319 332 339 340 341 342 346 346 347 348 345 339 342 343 330 297 279 262 244 244 246 249
303 310 311 310 310 310 305 306 311 313 316 319 319 316 315 317 322 324 326 323 323 325 329 336 340 334 335 337 339 343 344 340 337 332 330 327 317 291 270 271 277 278 273 269
294 299 304 308 312 312 311 311 308 309 315 318 317 317 320 321 324 321 312 303 313 326 333 328 327 330 333 335 334 333 329 326 323 321 317 312 304 295 288 281 275 279 280 275
290 295 303 304 302 302 309 312 309 309 310 311 313 315 314 309 309 312 312 314 316 323 328 319 323 329 333 339 334 324 321 320 316 311 304 297 294 292 290 287 282 279 274 274
296 302 302 305 310 314 316 314 312 310 305 301 302 304 306 309 306 294 294 311 322 324 323 319 326 330 337 345 335 325 316 310 307 305 302 299 296 293 290 289 288 286 281 278
287 292 300 309 310 302 301 307 311 312 313 310 310 308 302 292 291 300 304 308 317 324 321 321 326 330 335 325 319 314 308 299 294 294 290 291 291 291 290 286 282 281 279 275
275 280 280 275 274 286 297 304 305 308 311 311 311 310 308 303 298 299 303 307 311 317 320 315 315 319 316 309 305 305 303 305 311 308 299 295 292 290 287 285 284 280 277 274
286 288 291 294 293 296 296 296 298 301 303 302 304 307 307 309 309 308 307 308 310 312 310 309 310 310 308 306 305 303 301 299 297 295 293 289 285 284 283 283 281 280 278 273